Location: *
(35.8942°N, 23.3025°E)
Time: 18:28:45
(UTC+00:00)

Gurwin Techsat 1B - Pass Details

Date: 01 April 2023
Orbit: 811 x 813 km, 98.9° (Epoch: 03 June)

Event Time Altitude Azimuth Distance (km) Brightness Sun altitude
Rises 00:23:28 0° 28° (NNE) 3,343 12.6 -41.9°
Reaches altitude 10° 00:26:14 10° 41° (NE) 2,407 11.7 -41.5°
Enters shadow 00:28:06 18° 58° (ENE) 1,891 11.0 -41.3°
